Time,TemperatureF,DewpointF,PressureIn,WindDirection,WindDirectionDegrees,WindSpeedMPH,WindSpeedGustMPH,Humidity,HourlyPrecipIn,Conditions,Clouds,dailyrainin,SoftwareType,DateUTC
2013-09-14 00:00:00,58.0,54.8,29.85,WNW,292,7.0,15.0,89,0.00,,,0.00,Weather View 32 v70,2013-09-14 04:00:00,
2013-09-14 00:01:00,58.0,54.8,29.85,West,270,6.0,15.0,89,0.00,,,0.00,Weather View 32 v70,2013-09-14 04:01:00,
2013-09-14 00:07:00,58.0,54.8,29.85,WNW,292,1.0,15.0,89,0.00,,,0.00,Weather View 32 v70,2013-09-14 04:07:00,
2013-09-14 00:12:00,58.0,55.1,29.85,NW,315,3.0,15.0,90,0.00,,,0.00,Weather View 32 v70,2013-09-14 04:12:00,
2013-09-14 00:17:00,58.0,54.8,29.85,SW,225,5.0,15.0,89,0.00,,,0.00,Weather View 32 v70,2013-09-14 04:17:00,
2013-09-14 00:22:00,57.0,54.4,29.85,West,270,1.0,15.0,91,0.00,,,0.00,Weather View 32 v70,2013-09-14 04:22:00,
2013-09-14 00:27:00,57.0,54.1,29.85,North,360,5.0,15.0,90,0.00,,,0.00,Weather View 32 v70,2013-09-14 04:27:00,
2013-09-14 00:32:00,57.0,54.4,29.85,WNW,292,5.0,15.0,91,0.00,,,0.00,Weather View 32 v70,2013-09-14 04:32:00,
2013-09-14 00:37:00,57.0,53.8,29.86,NNE,22,6.0,15.0,89,0.00,,,0.00,Weather View 32 v70,2013-09-14 04:37:00,
2013-09-14 00:42:00,57.0,54.1,29.86,WNW,292,8.0,15.0,90,0.00,,,0.00,Weather View 32 v70,2013-09-14 04:42:00,
2013-09-14 00:47:00,57.0,53.8,29.86,North,360,5.0,16.0,89,0.00,,,0.00,Weather View 32 v70,2013-09-14 04:47:00,
2013-09-14 00:52:00,56.0,53.4,29.86,West,270,10.0,16.0,91,0.00,,,0.00,Weather View 32 v70,2013-09-14 04:52:00,
2013-09-14 00:57:00,57.0,53.8,29.87,NW,315,8.0,16.0,89,0.00,,,0.00,Weather View 32 v70,2013-09-14 04:57:00,
2013-09-14 01:02:00,56.0,53.4,29.87,WNW,292,4.0,16.0,91,0.00,,,0.00,Weather View 32 v70,2013-09-14 05:02:00,
2013-09-14 01:07:00,56.0,53.4,29.88,NW,315,1.0,16.0,91,0.00,,,0.00,Weather View 32 v70,2013-09-14 05:07:00,
2013-09-14 01:12:00,56.0,53.4,29.88,NNW,337,2.0,16.0,91,0.00,,,0.00,Weather View 32 v70,2013-09-14 05:12:00,
2013-09-14 01:17:00,56.0,53.4,29.87,WNW,292,6.0,16.0,91,0.00,,,0.00,Weather View 32 v70,2013-09-14 05:17:00,
2013-09-14 01:22:00,56.0,53.7,29.87,West,270,6.0,18.0,92,0.00,,,0.00,Weather View 32 v70,2013-09-14 05:22:00,
2013-09-14 01:27:00,56.0,53.4,29.88,WNW,292,3.0,18.0,91,0.00,,,0.00,Weather View 32 v70,2013-09-14 05:27:00,
2013-09-14 01:32:00,55.0,52.7,29.88,WNW,292,6.0,18.0,92,0.00,,,0.00,Weather View 32 v70,2013-09-14 05:32:00,
2013-09-14 01:37:00,55.0,53.0,29.88,WSW,247,5.0,18.0,93,0.00,,,0.00,Weather View 32 v70,2013-09-14 05:37:00,
2013-09-14 01:42:00,55.0,53.0,29.88,NNW,337,4.0,18.0,93,0.00,,,0.00,Weather View 32 v70,2013-09-14 05:42:00,
2013-09-14 01:47:00,55.0,53.0,29.89,WNW,292,1.0,18.0,93,0.00,,,0.00,Weather View 32 v70,2013-09-14 05:47:00,
2013-09-14 01:52:00,55.0,53.0,29.89,WSW,247,4.0,18.0,93,0.00,,,0.00,Weather View 32 v70,2013-09-14 05:52:00,
2013-09-14 01:57:00,55.0,53.0,29.89,WNW,292,6.0,18.0,93,0.00,,,0.00,Weather View 32 v70,2013-09-14 05:57:00,
2013-09-14 02:02:00,55.0,53.3,29.89,NW,315,3.0,18.0,94,0.08,,,0.00,Weather View 32 v70,2013-09-14 06:02:00,
2013-09-14 02:07:00,55.0,53.3,29.89,WSW,247,3.0,18.0,94,0.00,,,0.00,Weather View 32 v70,2013-09-14 06:07:00,
2013-09-14 02:12:00,55.0,53.3,29.89,NW,315,1.0,18.0,94,0.00,,,0.00,Weather View 32 v70,2013-09-14 06:12:00,
2013-09-14 02:17:00,55.0,53.3,29.88,NNE,22,8.0,18.0,94,0.00,,,0.00,Weather View 32 v70,2013-09-14 06:17:00,
2013-09-14 02:22:00,54.0,52.3,29.88,NE,45,4.0,17.0,94,0.00,,,0.00,Weather View 32 v70,2013-09-14 06:22:00,
2013-09-14 02:27:00,54.0,52.3,29.88,NW,315,5.0,17.0,94,0.00,,,0.00,Weather View 32 v70,2013-09-14 06:27:00,
2013-09-14 02:32:00,54.0,52.3,29.88,West,270,3.0,17.0,94,0.00,,,0.00,Weather View 32 v70,2013-09-14 06:32:00,
2013-09-14 02:37:00,54.0,52.3,29.89,WSW,247,10.0,17.0,94,0.00,,,0.00,Weather View 32 v70,2013-09-14 06:37:00,
2013-09-14 02:42:00,54.0,52.3,29.89,WSW,247,6.0,17.0,94,0.00,,,0.00,Weather View 32 v70,2013-09-14 06:42:00,
2013-09-14 02:47:00,54.0,52.3,29.90,WNW,292,4.0,17.0,94,0.00,,,0.00,Weather View 32 v70,2013-09-14 06:47:00,
2013-09-14 02:52:00,54.0,52.3,29.90,West,270,6.0,17.0,94,0.00,,,0.00,Weather View 32 v70,2013-09-14 06:52:00,
2013-09-14 02:57:00,54.0,52.3,29.90,NNE,22,1.0,17.0,94,0.00,,,0.00,Weather View 32 v70,2013-09-14 06:57:00,
2013-09-14 03:02:00,54.0,52.3,29.90,NW,315,6.0,17.0,94,0.00,,,0.00,Weather View 32 v70,2013-09-14 07:02:00,
2013-09-14 03:07:00,54.0,52.3,29.90,SSW,202,0.0,16.0,94,0.00,,,0.00,Weather View 32 v70,2013-09-14 07:07:00,
2013-09-14 03:12:00,54.0,52.3,29.90,NE,45,6.0,12.0,94,0.00,,,0.00,Weather View 32 v70,2013-09-14 07:12:00,
2013-09-14 03:17:00,54.0,52.3,29.90,NW,315,2.0,12.0,94,0.00,,,0.00,Weather View 32 v70,2013-09-14 07:17:00,
2013-09-14 03:23:00,54.0,52.3,29.90,WNW,292,3.0,12.0,94,0.00,,,0.00,Weather View 32 v70,2013-09-14 07:23:00,
2013-09-14 03:28:00,54.0,52.3,29.90,WNW,292,2.0,12.0,94,0.00,,,0.00,Weather View 32 v70,2013-09-14 07:28:00,
2013-09-14 03:33:00,54.0,52.3,29.90,SE,135,1.0,12.0,94,0.00,,,0.00,Weather View 32 v70,2013-09-14 07:33:00,
2013-09-14 03:38:00,54.0,52.3,29.90,WSW,247,1.0,12.0,94,0.00,,,0.00,Weather View 32 v70,2013-09-14 07:38:00,
2013-09-14 03:43:00,54.0,52.6,29.90,NNW,337,2.0,12.0,95,0.00,,,0.00,Weather View 32 v70,2013-09-14 07:43:00,
2013-09-14 03:48:00,54.0,52.3,29.91,West,270,6.0,12.0,94,0.00,,,0.00,Weather View 32 v70,2013-09-14 07:48:00,
2013-09-14 03:53:00,54.0,52.6,29.91,NW,315,2.0,12.0,95,0.00,,,0.00,Weather View 32 v70,2013-09-14 07:53:00,
2013-09-14 03:58:00,53.0,51.3,29.91,ENE,67,0.0,12.0,94,0.00,,,0.00,Weather View 32 v70,2013-09-14 07:58:00,
2013-09-14 04:03:00,53.0,51.3,29.91,NE,45,2.0,12.0,94,0.00,,,0.00,Weather View 32 v70,2013-09-14 08:03:00,
2013-09-14 04:08:00,53.0,51.3,29.91,NNW,337,2.0,12.0,94,0.00,,,0.00,Weather View 32 v70,2013-09-14 08:08:00,
2013-09-14 04:13:00,53.0,51.3,29.91,WNW,292,6.0,12.0,94,0.00,,,0.00,Weather View 32 v70,2013-09-14 08:13:00,
2013-09-14 04:18:00,53.0,51.3,29.91,NW,315,6.0,11.0,94,0.00,,,0.00,Weather View 32 v70,2013-09-14 08:18:00,
2013-09-14 04:23:00,53.0,51.6,29.91,NNE,22,4.0,11.0,95,0.00,,,0.00,Weather View 32 v70,2013-09-14 08:23:00,
2013-09-14 04:28:00,53.0,51.3,29.92,NNW,337,4.0,11.0,94,0.00,,,0.00,Weather View 32 v70,2013-09-14 08:28:00,
2013-09-14 04:33:00,53.0,51.3,29.92,WNW,292,4.0,11.0,94,0.00,,,0.00,Weather View 32 v70,2013-09-14 08:33:00,
2013-09-14 04:38:00,53.0,51.3,29.92,WSW,247,2.0,11.0,94,0.00,,,0.00,Weather View 32 v70,2013-09-14 08:38:00,
2013-09-14 04:43:00,53.0,51.6,29.92,West,270,7.0,11.0,95,0.00,,,0.00,Weather View 32 v70,2013-09-14 08:43:00,
2013-09-14 04:48:00,53.0,51.6,29.92,NW,315,3.0,11.0,95,0.00,,,0.00,Weather View 32 v70,2013-09-14 08:48:00,
2013-09-14 04:53:00,52.0,50.6,29.92,West,270,6.0,10.0,95,0.00,,,0.00,Weather View 32 v70,2013-09-14 08:53:00,
2013-09-14 04:58:00,52.0,50.6,29.92,NW,315,4.0,10.0,95,0.00,,,0.00,Weather View 32 v70,2013-09-14 08:58:00,
2013-09-14 05:03:00,52.0,50.6,29.92,WNW,292,3.0,13.0,95,0.00,,,0.00,Weather View 32 v70,2013-09-14 09:03:00,
2013-09-14 05:08:00,52.0,50.6,29.93,North,360,3.0,13.0,95,0.00,,,0.00,Weather View 32 v70,2013-09-14 09:08:00,
2013-09-14 05:13:00,52.0,50.6,29.93,West,270,2.0,13.0,95,0.00,,,0.00,Weather View 32 v70,2013-09-14 09:13:00,
2013-09-14 05:18:00,52.0,50.6,29.93,WNW,292,4.0,13.0,95,0.00,,,0.00,Weather View 32 v70,2013-09-14 09:18:00,
2013-09-14 05:23:00,52.0,50.6,29.93,NW,315,4.0,13.0,95,0.00,,,0.00,Weather View 32 v70,2013-09-14 09:23:00,
2013-09-14 05:28:00,52.0,50.9,29.93,NNW,337,2.0,13.0,96,0.00,,,0.00,Weather View 32 v70,2013-09-14 09:28:00,
2013-09-14 05:33:00,52.0,50.9,29.93,North,360,2.0,13.0,96,0.00,,,0.00,Weather View 32 v70,2013-09-14 09:33:00,
2013-09-14 05:38:00,52.0,50.9,29.94,NW,315,6.0,13.0,96,0.00,,,0.00,Weather View 32 v70,2013-09-14 09:38:00,
2013-09-14 05:43:00,52.0,50.9,29.94,WSW,247,3.0,13.0,96,0.00,,,0.00,Weather View 32 v70,2013-09-14 09:43:00,
2013-09-14 05:48:00,52.0,50.6,29.94,WSW,247,5.0,13.0,95,0.00,,,0.00,Weather View 32 v70,2013-09-14 09:48:00,
2013-09-14 05:53:00,52.0,50.6,29.94,NW,315,3.0,13.0,95,0.00,,,0.00,Weather View 32 v70,2013-09-14 09:53:00,
2013-09-14 05:58:00,52.0,50.6,29.95,WNW,292,4.0,13.0,95,0.00,,,0.00,Weather View 32 v70,2013-09-14 09:58:00,
2013-09-14 06:04:00,52.0,50.6,29.95,NNW,337,4.0,10.0,95,0.00,,,0.00,Weather View 32 v70,2013-09-14 10:04:00,
2013-09-14 06:09:00,52.0,50.6,29.95,West,270,2.0,10.0,95,0.00,,,0.00,Weather View 32 v70,2013-09-14 10:09:00,
2013-09-14 06:14:00,52.0,50.6,29.95,West,270,7.0,10.0,95,0.00,,,0.00,Weather View 32 v70,2013-09-14 10:14:00,
2013-09-14 06:19:00,52.0,50.6,29.95,NW,315,6.0,10.0,95,0.00,,,0.00,Weather View 32 v70,2013-09-14 10:19:00,
2013-09-14 06:24:00,52.0,50.6,29.95,WNW,292,8.0,10.0,95,0.00,,,0.00,Weather View 32 v70,2013-09-14 10:24:00,
2013-09-14 06:29:00,51.0,49.6,29.95,West,270,10.0,11.0,95,0.00,,,0.00,Weather View 32 v70,2013-09-14 10:29:00,
2013-09-14 06:34:00,52.0,50.6,29.95,West,270,5.0,12.0,95,0.00,,,0.00,Weather View 32 v70,2013-09-14 10:34:00,
2013-09-14 06:39:00,52.0,50.6,29.95,NW,315,5.0,12.0,95,0.00,,,0.00,Weather View 32 v70,2013-09-14 10:39:00,
2013-09-14 06:44:00,52.0,50.6,29.95,West,270,1.0,12.0,95,0.00,,,0.00,Weather View 32 v70,2013-09-14 10:44:00,
2013-09-14 06:49:00,52.0,50.6,29.96,NW,315,0.0,12.0,95,0.00,,,0.00,Weather View 32 v70,2013-09-14 10:49:00,
2013-09-14 06:54:00,52.0,50.6,29.96,West,270,5.0,12.0,95,0.00,,,0.00,Weather View 32 v70,2013-09-14 10:54:00,
2013-09-14 06:59:00,52.0,50.6,29.97,NW,315,2.0,12.0,95,0.00,,,0.00,Weather View 32 v70,2013-09-14 10:59:00,
2013-09-14 07:04:00,52.0,50.6,29.97,West,270,4.0,12.0,95,0.00,,,0.00,Weather View 32 v70,2013-09-14 11:04:00,
2013-09-14 07:09:00,52.0,50.6,29.97,NW,315,1.0,12.0,95,0.00,,,0.00,Weather View 32 v70,2013-09-14 11:09:00,
2013-09-14 07:14:00,52.0,50.6,29.97,West,270,6.0,12.0,95,0.00,,,0.00,Weather View 32 v70,2013-09-14 11:14:00,
2013-09-14 07:19:00,52.0,50.3,29.97,SSW,202,2.0,12.0,94,0.00,,,0.00,Weather View 32 v70,2013-09-14 11:19:00,
2013-09-14 07:24:00,52.0,50.3,29.97,West,270,4.0,12.0,94,0.00,,,0.00,Weather View 32 v70,2013-09-14 11:24:00,
2013-09-14 07:29:00,52.0,50.3,29.97,WNW,292,7.0,12.0,94,0.00,,,0.00,Weather View 32 v70,2013-09-14 11:29:00,
2013-09-14 07:34:00,52.0,50.0,29.97,WNW,292,4.0,11.0,93,0.00,,,0.00,Weather View 32 v70,2013-09-14 11:34:00,
2013-09-14 07:39:00,53.0,51.0,29.97,West,270,8.0,11.0,93,0.00,,,0.00,Weather View 32 v70,2013-09-14 11:39:00,
2013-09-14 07:44:00,53.0,50.7,29.97,North,360,7.0,11.0,92,0.00,,,0.00,Weather View 32 v70,2013-09-14 11:44:00,
2013-09-14 07:49:00,53.0,50.7,29.98,WNW,292,10.0,11.0,92,0.00,,,0.00,Weather View 32 v70,2013-09-14 11:49:00,
2013-09-14 07:54:00,53.0,50.4,29.98,West,270,6.0,12.0,91,0.00,,,0.00,Weather View 32 v70,2013-09-14 11:54:00,
2013-09-14 07:59:00,54.0,51.7,29.98,NNW,337,4.0,12.0,92,0.00,,,0.00,Weather View 32 v70,2013-09-14 11:59:00,
2013-09-14 08:04:00,54.0,51.4,29.98,WNW,292,2.0,12.0,91,0.00,,,0.00,Weather View 32 v70,2013-09-14 12:04:00,
2013-09-14 08:09:00,54.0,51.4,29.98,NNE,22,3.0,12.0,91,0.00,,,0.00,Weather View 32 v70,2013-09-14 12:09:00,
2013-09-14 08:14:00,54.0,51.4,29.98,SW,225,4.0,12.0,91,0.00,,,0.00,Weather View 32 v70,2013-09-14 12:14:00,
2013-09-14 08:19:00,54.0,51.1,29.98,West,270,6.0,12.0,90,0.00,,,0.00,Weather View 32 v70,2013-09-14 12:19:00,
2013-09-14 08:24:00,54.0,50.8,29.98,WNW,292,6.0,12.0,89,0.00,,,0.00,Weather View 32 v70,2013-09-14 12:24:00,
2013-09-14 08:29:00,55.0,51.8,29.97,West,270,6.0,13.0,89,0.00,,,0.00,Weather View 32 v70,2013-09-14 12:29:00,
2013-09-14 08:35:00,55.0,51.5,29.97,NNE,22,7.0,16.0,88,0.00,,,0.00,Weather View 32 v70,2013-09-14 12:35:00,
2013-09-14 08:40:00,55.0,51.2,29.97,North,360,3.0,20.0,87,0.00,,,0.00,Weather View 32 v70,2013-09-14 12:40:00,
2013-09-14 08:45:00,55.0,51.5,29.97,South,180,4.0,20.0,88,0.00,,,0.00,Weather View 32 v70,2013-09-14 12:45:00,
2013-09-14 08:50:00,55.0,51.2,29.98,West,270,9.0,20.0,87,0.00,,,0.00,Weather View 32 v70,2013-09-14 12:50:00,
2013-09-14 08:55:00,55.0,51.2,29.98,West,270,10.0,20.0,87,0.00,,,0.00,Weather View 32 v70,2013-09-14 12:55:00,
2013-09-14 09:00:00,55.0,51.2,29.97,NW,315,2.0,20.0,87,0.00,,,0.00,Weather View 32 v70,2013-09-14 13:00:00,
2013-09-14 09:05:00,55.0,50.9,29.97,NNW,337,5.0,20.0,86,0.00,,,0.00,Weather View 32 v70,2013-09-14 13:05:00,
2013-09-14 09:10:00,56.0,51.9,29.97,NW,315,3.0,20.0,86,0.00,,,0.00,Weather View 32 v70,2013-09-14 13:10:00,
2013-09-14 09:15:00,56.0,51.9,29.97,West,270,10.0,20.0,86,0.00,,,0.00,Weather View 32 v70,2013-09-14 13:15:00,
2013-09-14 09:20:00,56.0,51.9,29.98,West,270,9.0,20.0,86,0.00,,,0.00,Weather View 32 v70,2013-09-14 13:20:00,
2013-09-14 09:25:00,56.0,51.2,29.98,NNE,22,12.0,20.0,84,0.00,,,0.00,Weather View 32 v70,2013-09-14 13:25:00,
2013-09-14 09:30:00,56.0,51.2,29.97,NNW,337,3.0,20.0,84,0.00,,,0.00,Weather View 32 v70,2013-09-14 13:30:00,
2013-09-14 09:35:00,57.0,51.9,29.97,West,270,4.0,20.0,83,0.00,,,0.00,Weather View 32 v70,2013-09-14 13:35:00,
2013-09-14 09:40:00,57.0,51.9,29.97,West,270,5.0,16.0,83,0.00,,,0.00,Weather View 32 v70,2013-09-14 13:40:00,
2013-09-14 09:45:00,57.0,51.9,29.97,NE,45,5.0,16.0,83,0.00,,,0.00,Weather View 32 v70,2013-09-14 13:45:00,
2013-09-14 09:50:00,57.0,50.9,29.98,North,360,9.0,16.0,80,0.00,,,0.00,Weather View 32 v70,2013-09-14 13:50:00,
2013-09-14 09:55:00,57.0,51.2,29.98,North,360,7.0,16.0,81,0.00,,,0.00,Weather View 32 v70,2013-09-14 13:55:00,
2013-09-14 10:00:00,58.0,52.2,29.98,ENE,67,6.0,16.0,81,0.00,,,0.00,Weather View 32 v70,2013-09-14 14:00:00,
2013-09-14 10:05:00,58.0,52.2,29.98,WNW,292,7.0,16.0,81,0.00,,,0.00,Weather View 32 v70,2013-09-14 14:05:00,
2013-09-14 10:10:00,58.0,51.8,29.98,North,360,4.0,15.0,80,0.00,,,0.00,Weather View 32 v70,2013-09-14 14:10:00,
2013-09-14 10:15:00,58.0,51.8,29.98,NW,315,6.0,15.0,80,0.00,,,0.00,Weather View 32 v70,2013-09-14 14:15:00,
2013-09-14 10:20:00,58.0,51.2,29.99,North,360,7.0,15.0,78,0.00,,,0.00,Weather View 32 v70,2013-09-14 14:20:00,
2013-09-14 10:25:00,58.0,51.5,29.99,WNW,292,3.0,15.0,79,0.00,,,0.00,Weather View 32 v70,2013-09-14 14:25:00,
2013-09-14 10:30:00,58.0,51.5,29.99,SW,225,2.0,15.0,79,0.00,,,0.00,Weather View 32 v70,2013-09-14 14:30:00,
2013-09-14 10:35:00,58.0,50.8,29.99,West,270,9.0,15.0,77,0.00,,,0.00,Weather View 32 v70,2013-09-14 14:35:00,
2013-09-14 10:40:00,58.0,51.2,29.99,NW,315,8.0,17.0,78,0.00,,,0.00,Weather View 32 v70,2013-09-14 14:40:00,
2013-09-14 10:45:00,59.0,52.1,29.99,West,270,3.0,17.0,78,0.00,,,0.00,Weather View 32 v70,2013-09-14 14:45:00,
2013-09-14 10:50:00,59.0,52.5,29.99,SW,225,3.0,17.0,79,0.00,,,0.00,Weather View 32 v70,2013-09-14 14:50:00,
2013-09-14 10:55:00,59.0,52.1,29.99,WNW,292,7.0,17.0,78,0.00,,,0.00,Weather View 32 v70,2013-09-14 14:55:00,
2013-09-14 11:00:00,59.0,52.1,29.99,WSW,247,6.0,17.0,78,0.00,,,0.00,Weather View 32 v70,2013-09-14 15:00:00,
2013-09-14 11:05:00,59.0,51.4,29.99,NNE,22,3.0,17.0,76,0.00,,,0.00,Weather View 32 v70,2013-09-14 15:05:00,
2013-09-14 11:11:00,60.0,52.8,29.99,WSW,247,0.0,17.0,77,0.00,,,0.00,Weather View 32 v70,2013-09-14 15:11:00,
2013-09-14 11:16:00,60.0,51.7,29.99,North,360,3.0,17.0,74,0.00,,,0.00,Weather View 32 v70,2013-09-14 15:16:00,
2013-09-14 11:21:00,60.0,51.7,29.98,WNW,292,8.0,17.0,74,0.00,,,0.00,Weather View 32 v70,2013-09-14 15:21:00,
2013-09-14 11:26:00,60.0,51.3,29.98,North,360,6.0,17.0,73,0.00,,,0.00,Weather View 32 v70,2013-09-14 15:26:00,
2013-09-14 11:31:00,60.0,51.7,29.98,SE,135,0.0,17.0,74,0.00,,,0.00,Weather View 32 v70,2013-09-14 15:31:00,
2013-09-14 11:36:00,61.0,52.3,29.98,WNW,292,5.0,17.0,73,0.00,,,0.00,Weather View 32 v70,2013-09-14 15:36:00,
2013-09-14 11:41:00,60.0,50.9,29.98,NE,45,6.0,12.0,72,0.00,,,0.00,Weather View 32 v70,2013-09-14 15:41:00,
2013-09-14 11:46:00,61.0,52.6,29.98,East,90,2.0,12.0,74,0.00,,,0.00,Weather View 32 v70,2013-09-14 15:46:00,
2013-09-14 11:51:00,61.0,50.7,29.98,NNE,22,6.0,12.0,69,0.00,,,0.00,Weather View 32 v70,2013-09-14 15:51:00,
2013-09-14 11:56:00,61.0,51.9,29.98,ENE,67,8.0,12.0,72,0.00,,,0.00,Weather View 32 v70,2013-09-14 15:56:00,
2013-09-14 12:01:00,61.0,51.1,29.98,North,360,7.0,12.0,70,0.00,,,0.00,Weather View 32 v70,2013-09-14 16:01:00,
2013-09-14 12:06:00,61.0,51.9,29.98,NW,315,3.0,12.0,72,0.00,,,0.00,Weather View 32 v70,2013-09-14 16:06:00,
2013-09-14 12:11:00,61.0,51.9,29.99,West,270,6.0,12.0,72,0.00,,,0.00,Weather View 32 v70,2013-09-14 16:11:00,
2013-09-14 12:16:00,62.0,51.7,29.99,North,360,2.0,12.0,69,0.00,,,0.00,Weather View 32 v70,2013-09-14 16:16:00,
2013-09-14 12:21:00,62.0,52.5,29.98,WNW,292,0.0,12.0,71,0.00,,,0.00,Weather View 32 v70,2013-09-14 16:21:00,
2013-09-14 12:26:00,62.0,51.7,29.98,NE,45,1.0,12.0,69,0.00,,,0.00,Weather View 32 v70,2013-09-14 16:26:00,
2013-09-14 12:31:00,62.0,51.3,29.98,North,360,7.0,12.0,68,0.00,,,0.00,Weather View 32 v70,2013-09-14 16:31:00,
2013-09-14 12:36:00,62.0,50.9,29.98,WNW,292,6.0,12.0,67,0.00,,,0.00,Weather View 32 v70,2013-09-14 16:36:00,
2013-09-14 12:41:00,62.0,51.7,29.97,NNE,22,3.0,12.0,69,0.00,,,0.00,Weather View 32 v70,2013-09-14 16:41:00,
2013-09-14 12:46:00,62.0,51.7,29.97,West,270,6.0,12.0,69,0.00,,,0.00,Weather View 32 v70,2013-09-14 16:46:00,
2013-09-14 12:51:00,62.0,51.7,29.98,SW,225,2.0,12.0,69,0.00,,,0.00,Weather View 32 v70,2013-09-14 16:51:00,
2013-09-14 12:56:00,62.0,50.9,29.98,West,270,8.0,12.0,67,0.00,,,0.00,Weather View 32 v70,2013-09-14 16:56:00,
2013-09-14 13:01:00,62.0,50.5,29.97,West,270,3.0,12.0,66,0.00,,,0.00,Weather View 32 v70,2013-09-14 17:01:00,
2013-09-14 13:06:00,62.0,50.9,29.97,WSW,247,1.0,12.0,67,0.00,,,0.00,Weather View 32 v70,2013-09-14 17:06:00,
2013-09-14 13:11:00,63.0,51.8,29.97,NNE,22,6.0,12.0,67,0.00,,,0.00,Weather View 32 v70,2013-09-14 17:11:00,
2013-09-14 13:16:00,63.0,51.4,29.97,WNW,292,5.0,12.0,66,0.00,,,0.00,Weather View 32 v70,2013-09-14 17:16:00,
2013-09-14 13:21:00,63.0,51.0,29.97,ENE,67,3.0,12.0,65,0.00,,,0.00,Weather View 32 v70,2013-09-14 17:21:00,
2013-09-14 13:26:00,63.0,50.2,29.97,WNW,292,1.0,12.0,63,0.00,,,0.00,Weather View 32 v70,2013-09-14 17:26:00,
2013-09-14 13:31:00,64.0,52.4,29.96,NW,315,0.0,12.0,66,0.00,,,0.00,Weather View 32 v70,2013-09-14 17:31:00,
2013-09-14 13:36:00,65.0,52.9,29.95,SE,135,0.0,12.0,65,0.00,,,0.00,Weather View 32 v70,2013-09-14 17:36:00,
2013-09-14 13:41:00,65.0,52.5,29.95,NE,45,2.0,12.0,64,0.00,,,0.00,Weather View 32 v70,2013-09-14 17:41:00,
2013-09-14 13:46:00,65.0,52.1,29.95,NW,315,6.0,12.0,63,0.00,,,0.00,Weather View 32 v70,2013-09-14 17:46:00,
2013-09-14 13:51:00,64.0,51.1,29.95,WNW,292,4.0,12.0,63,0.00,,,0.00,Weather View 32 v70,2013-09-14 17:51:00,
2013-09-14 13:56:00,64.0,50.7,29.96,North,360,2.0,12.0,62,0.00,,,0.00,Weather View 32 v70,2013-09-14 17:56:00,
2013-09-14 14:01:00,64.0,51.5,29.96,NW,315,5.0,10.0,64,0.00,,,0.00,Weather View 32 v70,2013-09-14 18:01:00,
2013-09-14 14:07:00,64.0,51.5,29.96,North,360,7.0,10.0,64,0.00,,,0.00,Weather View 32 v70,2013-09-14 18:07:00,
2013-09-14 14:12:00,64.0,52.0,29.96,WSW,247,3.0,10.0,65,0.00,,,0.00,Weather View 32 v70,2013-09-14 18:12:00,
2013-09-14 14:17:00,64.0,51.5,29.96,NE,45,5.0,9.0,64,0.00,,,0.00,Weather View 32 v70,2013-09-14 18:17:00,
2013-09-14 14:22:00,64.0,52.4,29.96,NE,45,1.0,9.0,66,0.00,,,0.00,Weather View 32 v70,2013-09-14 18:22:00,
2013-09-14 14:27:00,64.0,52.8,29.96,West,270,1.0,9.0,67,0.00,,,0.00,Weather View 32 v70,2013-09-14 18:27:00,
2013-09-14 14:32:00,64.0,52.0,29.96,NW,315,3.0,9.0,65,0.00,,,0.00,Weather View 32 v70,2013-09-14 18:32:00,
2013-09-14 14:37:00,64.0,52.8,29.96,NE,45,0.0,9.0,67,0.00,,,0.00,Weather View 32 v70,2013-09-14 18:37:00,
2013-09-14 14:42:00,64.0,52.8,29.96,WSW,247,6.0,9.0,67,0.00,,,0.00,Weather View 32 v70,2013-09-14 18:42:00,
2013-09-14 14:47:00,63.0,51.8,29.96,WNW,292,2.0,9.0,67,0.00,,,0.00,Weather View 32 v70,2013-09-14 18:47:00,
2013-09-14 14:52:00,63.0,51.4,29.97,West,270,6.0,12.0,66,0.00,,,0.00,Weather View 32 v70,2013-09-14 18:52:00,
2013-09-14 14:57:00,64.0,52.8,29.97,NNE,22,1.0,12.0,67,0.00,,,0.00,Weather View 32 v70,2013-09-14 18:57:00,
2013-09-14 15:02:00,64.0,52.8,29.97,West,270,3.0,12.0,67,0.00,,,0.00,Weather View 32 v70,2013-09-14 19:02:00,
2013-09-14 15:07:00,64.0,53.2,29.97,SSW,202,5.0,12.0,68,0.00,,,0.00,Weather View 32 v70,2013-09-14 19:07:00,
2013-09-14 15:12:00,64.0,53.2,29.97,NE,45,6.0,12.0,68,0.00,,,0.00,Weather View 32 v70,2013-09-14 19:12:00,
2013-09-14 15:17:00,63.0,51.4,29.98,NNW,337,6.0,14.0,66,0.00,,,0.00,Weather View 32 v70,2013-09-14 19:17:00,
2013-09-14 15:22:00,63.0,51.8,29.98,NNE,22,4.0,14.0,67,0.00,,,0.00,Weather View 32 v70,2013-09-14 19:22:00,
2013-09-14 15:27:00,63.0,51.0,29.98,West,270,3.0,14.0,65,0.00,,,0.00,Weather View 32 v70,2013-09-14 19:27:00,
2013-09-14 15:32:00,63.0,51.0,29.98,NW,315,5.0,14.0,65,0.00,,,0.00,Weather View 32 v70,2013-09-14 19:32:00,
2013-09-14 15:37:00,64.0,52.0,29.97,West,270,2.0,14.0,65,0.00,,,0.00,Weather View 32 v70,2013-09-14 19:37:00,
2013-09-14 15:42:00,63.0,51.0,29.97,NNW,337,6.0,14.0,65,0.00,,,0.00,Weather View 32 v70,2013-09-14 19:42:00,
2013-09-14 15:47:00,63.0,50.6,29.99,NNW,337,5.0,14.0,64,0.00,,,0.00,Weather View 32 v70,2013-09-14 19:47:00,
2013-09-14 15:52:00,63.0,51.0,29.99,South,180,1.0,14.0,65,0.00,,,0.00,Weather View 32 v70,2013-09-14 19:52:00,
2013-09-14 15:57:00,63.0,50.6,29.99,NNW,337,1.0,14.0,64,0.00,,,0.00,Weather View 32 v70,2013-09-14 19:57:00,
2013-09-14 16:02:00,63.0,51.8,29.99,WSW,247,5.0,14.0,67,0.00,,,0.00,Weather View 32 v70,2013-09-14 20:02:00,
2013-09-14 16:07:00,63.0,50.6,29.99,WNW,292,2.0,14.0,64,0.00,,,0.00,Weather View 32 v70,2013-09-14 20:07:00,
2013-09-14 16:12:00,62.0,50.9,29.99,NW,315,5.0,14.0,67,0.00,,,0.00,Weather View 32 v70,2013-09-14 20:12:00,
2013-09-14 16:17:00,63.0,51.4,29.99,ENE,67,8.0,13.0,66,0.00,,,0.00,Weather View 32 v70,2013-09-14 20:17:00,
2013-09-14 16:22:00,63.0,51.4,29.99,NE,45,8.0,13.0,66,0.00,,,0.00,Weather View 32 v70,2013-09-14 20:22:00,
2013-09-14 16:27:00,63.0,51.0,29.99,NNW,337,3.0,13.0,65,0.00,,,0.00,Weather View 32 v70,2013-09-14 20:27:00,
2013-09-14 16:32:00,63.0,50.2,29.99,NE,45,5.0,13.0,63,0.00,,,0.00,Weather View 32 v70,2013-09-14 20:32:00,
2013-09-14 16:38:00,63.0,50.6,29.99,WNW,292,6.0,13.0,64,0.00,,,0.00,Weather View 32 v70,2013-09-14 20:38:00,
2013-09-14 16:43:00,63.0,50.2,29.99,East,90,3.0,13.0,63,0.00,,,0.00,Weather View 32 v70,2013-09-14 20:43:00,
2013-09-14 16:48:00,63.0,50.6,30.00,WNW,292,5.0,13.0,64,0.00,,,0.00,Weather View 32 v70,2013-09-14 20:48:00,
2013-09-14 16:53:00,63.0,50.6,30.00,NNW,337,2.0,13.0,64,0.00,,,0.00,Weather View 32 v70,2013-09-14 20:53:00,
2013-09-14 16:58:00,63.0,51.0,30.00,ENE,67,4.0,13.0,65,0.00,,,0.00,Weather View 32 v70,2013-09-14 20:58:00,
2013-09-14 17:03:00,63.0,51.0,30.00,NNW,337,3.0,13.0,65,0.00,,,0.00,Weather View 32 v70,2013-09-14 21:03:00,
2013-09-14 17:08:00,63.0,50.6,30.01,ENE,67,2.0,14.0,64,0.00,,,0.00,Weather View 32 v70,2013-09-14 21:08:00,
2013-09-14 17:13:00,63.0,51.0,30.01,WSW,247,5.0,14.0,65,0.00,,,0.00,Weather View 32 v70,2013-09-14 21:13:00,
2013-09-14 17:18:00,62.0,50.1,30.01,WNW,292,5.0,14.0,65,0.00,,,0.00,Weather View 32 v70,2013-09-14 21:18:00,
2013-09-14 17:23:00,62.0,50.9,30.01,NNE,22,6.0,14.0,67,0.00,,,0.00,Weather View 32 v70,2013-09-14 21:23:00,
2013-09-14 17:28:00,62.0,50.1,30.02,WSW,247,7.0,14.0,65,0.00,,,0.00,Weather View 32 v70,2013-09-14 21:28:00,
2013-09-14 17:33:00,62.0,50.9,30.02,North,360,6.0,14.0,67,0.00,,,0.00,Weather View 32 v70,2013-09-14 21:33:00,
2013-09-14 17:38:00,62.0,50.9,30.02,ENE,67,4.0,14.0,67,0.00,,,0.00,Weather View 32 v70,2013-09-14 21:38:00,
2013-09-14 17:43:00,62.0,51.3,30.02,NE,45,2.0,14.0,68,0.00,,,0.00,Weather View 32 v70,2013-09-14 21:43:00,
2013-09-14 17:48:00,62.0,50.9,30.03,NW,315,3.0,14.0,67,0.00,,,0.00,Weather View 32 v70,2013-09-14 21:48:00,
2013-09-14 17:53:00,62.0,50.9,30.03,SE,135,1.0,14.0,67,0.00,,,0.00,Weather View 32 v70,2013-09-14 21:53:00,
2013-09-14 17:58:00,62.0,51.7,30.03,North,360,3.0,14.0,69,0.00,,,0.00,Weather View 32 v70,2013-09-14 21:58:00,
2013-09-14 18:03:00,62.0,52.1,30.03,North,360,5.0,14.0,70,0.00,,,0.00,Weather View 32 v70,2013-09-14 22:03:00,
2013-09-14 18:08:00,61.0,51.5,30.03,NNW,337,0.0,13.0,71,0.00,,,0.00,Weather View 32 v70,2013-09-14 22:08:00,
2013-09-14 18:13:00,61.0,51.9,30.03,North,360,6.0,13.0,72,0.00,,,0.00,Weather View 32 v70,2013-09-14 22:13:00,
2013-09-14 18:18:00,61.0,51.5,30.04,NNE,22,5.0,13.0,71,0.00,,,0.00,Weather View 32 v70,2013-09-14 22:18:00,
2013-09-14 18:23:00,61.0,51.9,30.04,NNE,22,0.0,13.0,72,0.00,,,0.00,Weather View 32 v70,2013-09-14 22:23:00,
2013-09-14 18:28:00,61.0,51.9,30.04,NW,315,4.0,13.0,72,0.00,,,0.00,Weather View 32 v70,2013-09-14 22:28:00,
2013-09-14 18:33:00,61.0,52.3,30.04,NE,45,2.0,11.0,73,0.00,,,0.00,Weather View 32 v70,2013-09-14 22:33:00,
2013-09-14 18:38:00,61.0,52.6,30.04,North,360,0.0,10.0,74,0.00,,,0.00,Weather View 32 v70,2013-09-14 22:38:00,
2013-09-14 18:43:00,60.0,51.7,30.04,North,360,4.0,9.0,74,0.00,,,0.00,Weather View 32 v70,2013-09-14 22:43:00,
2013-09-14 18:48:00,60.0,52.0,30.05,West,270,6.0,9.0,75,0.00,,,0.00,Weather View 32 v70,2013-09-14 22:48:00,
2013-09-14 18:49:00,60.0,52.0,30.05,North,360,3.0,9.0,75,0.00,,,0.00,Weather View 32 v70,2013-09-14 22:49:00,
2013-09-14 18:54:00,59.0,51.4,30.05,ENE,67,2.0,9.0,76,0.00,,,0.00,Weather View 32 v70,2013-09-14 22:54:00,
2013-09-14 18:59:00,59.0,51.4,30.07,East,90,4.0,9.0,76,0.00,,,0.00,Weather View 32 v70,2013-09-14 22:59:00,
2013-09-14 19:04:00,59.0,51.8,30.07,ENE,67,4.0,9.0,77,0.00,,,0.00,Weather View 32 v70,2013-09-14 23:04:00,
2013-09-14 19:09:00,59.0,52.1,30.07,NNE,22,3.0,9.0,78,0.00,,,0.00,Weather View 32 v70,2013-09-14 23:09:00,
2013-09-14 19:14:00,58.0,51.2,30.07,North,360,4.0,9.0,78,0.00,,,0.00,Weather View 32 v70,2013-09-14 23:14:00,
2013-09-14 19:19:00,58.0,51.2,30.08,NW,315,0.0,9.0,78,0.00,,,0.00,Weather View 32 v70,2013-09-14 23:19:00,
2013-09-14 19:24:00,58.0,51.5,30.08,NW,315,2.0,9.0,79,0.00,,,0.00,Weather View 32 v70,2013-09-14 23:24:00,
2013-09-14 19:29:00,57.0,51.2,30.08,NW,315,1.0,9.0,81,0.00,,,0.00,Weather View 32 v70,2013-09-14 23:29:00,
2013-09-14 19:34:00,57.0,51.5,30.08,NW,315,0.0,9.0,82,0.00,,,0.00,Weather View 32 v70,2013-09-14 23:34:00,
2013-09-14 19:39:00,57.0,51.9,30.09,WNW,292,2.0,9.0,83,0.00,,,0.00,Weather View 32 v70,2013-09-14 23:39:00,
2013-09-14 19:44:00,56.0,51.9,30.09,WNW,292,0.0,9.0,86,0.00,,,0.00,Weather View 32 v70,2013-09-14 23:44:00,
2013-09-14 19:49:00,56.0,51.9,30.09,WNW,292,0.0,7.0,86,0.00,,,0.00,Weather View 32 v70,2013-09-14 23:49:00,
2013-09-14 19:54:00,56.0,52.2,30.09,WNW,292,0.0,7.0,87,0.00,,,0.00,Weather View 32 v70,2013-09-14 23:54:00,
2013-09-14 19:59:00,56.0,52.2,30.10,WNW,292,0.0,7.0,87,0.00,,,0.00,Weather View 32 v70,2013-09-14 23:59:00,
2013-09-14 20:04:00,55.0,51.5,30.10,WNW,292,0.0,7.0,88,0.00,,,0.00,Weather View 32 v70,2013-09-15 00:04:00,
2013-09-14 20:09:00,55.0,51.8,30.11,WNW,292,0.0,6.0,89,0.00,,,0.00,Weather View 32 v70,2013-09-15 00:09:00,
2013-09-14 20:14:00,55.0,52.1,30.11,WNW,292,0.0,6.0,90,0.00,,,0.00,Weather View 32 v70,2013-09-15 00:14:00,
2013-09-14 20:19:00,55.0,52.4,30.11,WNW,292,0.0,6.0,91,0.00,,,0.00,Weather View 32 v70,2013-09-15 00:19:00,
2013-09-14 20:24:00,55.0,52.4,30.11,WNW,292,0.0,6.0,91,0.00,,,0.00,Weather View 32 v70,2013-09-15 00:24:00,
2013-09-14 20:29:00,54.0,51.4,30.11,WNW,292,0.0,6.0,91,0.00,,,0.00,Weather View 32 v70,2013-09-15 00:29:00,
2013-09-14 20:34:00,54.0,51.7,30.11,WNW,292,0.0,6.0,92,0.00,,,0.00,Weather View 32 v70,2013-09-15 00:34:00,
2013-09-14 20:39:00,54.0,52.0,30.12,WNW,292,0.0,6.0,93,0.00,,,0.00,Weather View 32 v70,2013-09-15 00:39:00,
2013-09-14 20:45:00,54.0,52.3,30.12,WNW,292,0.0,2.0,94,0.00,,,0.00,Weather View 32 v70,2013-09-15 00:45:00,
2013-09-14 20:50:00,54.0,52.3,30.12,WNW,292,0.0,2.0,94,0.00,,,0.00,Weather View 32 v70,2013-09-15 00:50:00,
2013-09-14 20:55:00,53.0,51.6,30.12,WNW,292,0.0,0.0,95,0.00,,,0.00,Weather View 32 v70,2013-09-15 00:55:00,
2013-09-14 21:00:00,53.0,51.6,30.13,WNW,292,0.0,1.0,95,0.00,,,0.00,Weather View 32 v70,2013-09-15 01:00:00,
2013-09-14 21:05:00,53.0,51.6,30.13,WNW,292,0.0,1.0,95,0.00,,,0.00,Weather View 32 v70,2013-09-15 01:05:00,
2013-09-14 21:10:00,53.0,51.6,30.13,WNW,292,0.0,1.0,95,0.00,,,0.00,Weather View 32 v70,2013-09-15 01:10:00,
2013-09-14 21:15:00,53.0,51.9,30.13,WNW,292,0.0,1.0,96,0.00,,,0.00,Weather View 32 v70,2013-09-15 01:15:00,
2013-09-14 21:20:00,53.0,51.9,30.13,NW,315,0.0,3.0,96,0.00,,,0.00,Weather View 32 v70,2013-09-15 01:20:00,
2013-09-14 21:25:00,53.0,51.6,30.13,NW,315,5.0,5.0,95,0.00,,,0.00,Weather View 32 v70,2013-09-15 01:25:00,
2013-09-14 21:30:00,53.0,51.6,30.13,WSW,247,3.0,6.0,95,0.00,,,0.00,Weather View 32 v70,2013-09-15 01:30:00,
2013-09-14 21:35:00,54.0,52.6,30.13,NW,315,2.0,6.0,95,0.00,,,0.00,Weather View 32 v70,2013-09-15 01:35:00,
2013-09-14 21:40:00,54.0,52.3,30.13,NW,315,3.0,7.0,94,0.00,,,0.00,Weather View 32 v70,2013-09-15 01:40:00,
2013-09-14 21:45:00,54.0,52.0,30.13,West,270,4.0,7.0,93,0.00,,,0.00,Weather View 32 v70,2013-09-15 01:45:00,
2013-09-14 21:50:00,54.0,52.0,30.13,WNW,292,3.0,7.0,93,0.00,,,0.00,Weather View 32 v70,2013-09-15 01:50:00,
2013-09-14 21:55:00,54.0,51.7,30.13,West,270,1.0,9.0,92,0.00,,,0.00,Weather View 32 v70,2013-09-15 01:55:00,
2013-09-14 22:00:00,54.0,51.4,30.13,West,270,4.0,9.0,91,0.00,,,0.00,Weather View 32 v70,2013-09-15 02:00:00,
2013-09-14 22:05:00,54.0,51.4,30.13,NW,315,5.0,9.0,91,0.00,,,0.00,Weather View 32 v70,2013-09-15 02:05:00,
2013-09-14 22:10:00,54.0,51.4,30.13,West,270,3.0,9.0,91,0.00,,,0.00,Weather View 32 v70,2013-09-15 02:10:00,
2013-09-14 22:15:00,54.0,51.4,30.13,West,270,7.0,9.0,91,0.00,,,0.00,Weather View 32 v70,2013-09-15 02:15:00,
2013-09-14 22:20:00,54.0,51.4,30.13,WSW,247,3.0,9.0,91,0.00,,,0.00,Weather View 32 v70,2013-09-15 02:20:00,
2013-09-14 22:25:00,54.0,51.4,30.13,WNW,292,3.0,9.0,91,0.00,,,0.00,Weather View 32 v70,2013-09-15 02:25:00,
2013-09-14 22:30:00,54.0,51.1,30.13,West,270,6.0,11.0,90,0.00,,,0.00,Weather View 32 v70,2013-09-15 02:30:00,
2013-09-14 22:35:00,54.0,50.8,30.13,West,270,5.0,11.0,89,0.00,,,0.00,Weather View 32 v70,2013-09-15 02:35:00,
2013-09-14 22:40:00,54.0,50.5,30.13,NW,315,8.0,11.0,88,0.00,,,0.00,Weather View 32 v70,2013-09-15 02:40:00,
2013-09-14 22:45:00,54.0,50.5,30.13,WNW,292,3.0,11.0,88,0.00,,,0.00,Weather View 32 v70,2013-09-15 02:45:00,
2013-09-14 22:50:00,54.0,50.5,30.13,WSW,247,1.0,11.0,88,0.00,,,0.00,Weather View 32 v70,2013-09-15 02:50:00,
2013-09-14 22:55:00,54.0,50.5,30.13,WNW,292,5.0,11.0,88,0.00,,,0.00,Weather View 32 v70,2013-09-15 02:55:00,
2013-09-14 23:00:00,54.0,50.5,30.14,NW,315,7.0,11.0,88,0.00,,,0.00,Weather View 32 v70,2013-09-15 03:00:00,
2013-09-14 23:05:00,54.0,50.8,30.14,NW,315,5.0,11.0,89,0.00,,,0.00,Weather View 32 v70,2013-09-15 03:05:00,
2013-09-14 23:10:00,54.0,50.8,30.14,WSW,247,2.0,11.0,89,0.00,,,0.00,Weather View 32 v70,2013-09-15 03:10:00,
2013-09-14 23:15:00,53.0,49.5,30.14,WSW,247,0.0,11.0,88,0.00,,,0.00,Weather View 32 v70,2013-09-15 03:15:00,
2013-09-14 23:20:00,53.0,49.5,30.14,WNW,292,4.0,11.0,88,0.00,,,0.00,Weather View 32 v70,2013-09-15 03:20:00,
2013-09-14 23:25:00,53.0,50.1,30.14,West,270,4.0,11.0,90,0.00,,,0.00,Weather View 32 v70,2013-09-15 03:25:00,
2013-09-14 23:30:00,53.0,50.1,30.14,West,270,5.0,11.0,90,0.00,,,0.00,Weather View 32 v70,2013-09-15 03:30:00,
2013-09-14 23:35:00,53.0,50.1,30.14,West,270,1.0,11.0,90,0.00,,,0.00,Weather View 32 v70,2013-09-15 03:35:00,
2013-09-14 23:40:00,53.0,50.1,30.15,WNW,292,7.0,9.0,90,0.00,,,0.00,Weather View 32 v70,2013-09-15 03:40:00,
2013-09-14 23:45:00,53.0,50.1,30.15,West,270,2.0,9.0,90,0.00,,,0.00,Weather View 32 v70,2013-09-15 03:45:00,
2013-09-14 23:50:00,53.0,50.1,30.15,WNW,292,1.0,9.0,90,0.00,,,0.00,Weather View 32 v70,2013-09-15 03:50:00,
2013-09-14 23:55:00,52.0,49.2,30.15,NW,315,1.0,9.0,90,0.00,,,0.00,Weather View 32 v70,2013-09-15 03:55:00,